Location: F?ge?el
(45.8833°N, 22.5833°E)
Time: 13:40:43
(UTC+00:00)

Okean 2 Rocket - Pass Details

Date: 17 November 2025
Orbit: 610 x 635 km, 82.5° (Epoch: 06 December)

Event Time Altitude Azimuth Distance (km) Brightness Sun altitude
Rises 16:51:36 0° 184° (S) 2,886 6.6 -19.9°
Reaches altitude 10° 16:53:49 10° 183° (S) 1,981 5.8 -20.3°
Maximum altitude 16:58:12 80° 97° (E) 633 2.9 -21.1°
Enters shadow 17:00:32 27° 14° (NNE) 1,184 4.3 -21.5°
